This demonstration page uses our WeatherBlox Daily Observations layout. Learn more.

Left ArrowRight Arrow

Hourly Observations for May 28, 2015

Temp ( °F °C ) Dew Point ( °F °C ) Humidity (%) Winds ( mph kmh ) Pressure ( in mb ) Visibility ( mi km ) Precip ( " mm )
12:16 am 00:16 Partly Cloudy 68 20 66 19 94 94 SW 3 6 30.12 1020 10 16.0934 N/A
12:36 am 00:36 Mostly Cloudy 68 20 61 16 78 78 W 6 9 30.15 1021 10 16.0934 N/A
12:56 am 00:56 Partly Cloudy 68 20 63 17 83 83 NNW 10 17 30.15 1021 10 16.0934 N/A
1:17 am 01:17 Clear 66 19 66 19 100 100 NNW 3 6 30.15 1021 10 16.0934 N/A
2:36 am 02:36 Clear 63 17 N/A N/A Calm 30.18 1022 10 16.0934 N/A
3:56 am 03:56 Clear 59 15 N/A N/A N 5 7 30.18 1022 7 11.26538 N/A
4:36 am 04:36 Clear 61 16 N/A N/A Calm 30.18 1022 7 11.26538 N/A
4:56 am 04:56 Clear 61 16 N/A N/A Calm 30.18 1022 7 11.26538 N/A
5:17 am 05:17 Clear 57 14 N/A N/A NNE 6 9 30.18 1022 4 6.43736 N/A
5:36 am 05:36 Clear 57 14 N/A N/A NNE 5 7 30.18 1022 7 11.26538 N/A
5:56 am 05:56 Clear 57 14 N/A N/A Calm 30.18 1022 5 8.0467 N/A
6:16 am 06:16 Clear 55 13 N/A N/A Calm 30.21 1023 5 8.0467 N/A
6:36 am 06:36 Sunny 57 14 N/A N/A Calm 30.18 1022 5 8.0467 N/A
6:56 am 06:56 Sunny 57 14 N/A N/A NNE 7 11 30.18 1022 4 6.43736 N/A
7:16 am 07:16 Sunny 57 14 N/A N/A NNE 5 7 30.18 1022 7 11.26538 N/A
7:36 am 07:36 Sunny 61 16 N/A N/A NE 3 6 30.18 1022 10 16.0934 N/A
7:56 am 07:56 Sunny 63 17 N/A N/A NE 6 9 30.18 1022 10 16.0934 N/A
8:16 am 08:16 Sunny 64 18 N/A N/A ENE 5 7 30.18 1022 10 16.0934 N/A
8:36 am 08:36 Sunny 66 19 54 12 64 64 NE 7 11 30.18 1022 10 16.0934 N/A
8:56 am 08:56 Sunny 66 19 52 11 60 60 NE 8 13 30.18 1022 10 16.0934 N/A
9:16 am 09:16 Sunny 68 20 52 11 56 56 ENE 6 9 30.18 1022 10 16.0934 N/A
9:36 am 09:36 Sunny 70 21 52 11 53 53 NE 6 9 30.18 1022 10 16.0934 N/A
9:56 am 09:56 Sunny 72 22 52 11 50 50 E 6 9 30.18 1022 10 16.0934 N/A
10:16 am 10:16 Sunny 72 22 52 11 50 50 ENE 5 7 30.21 1023 10 16.0934 N/A
10:36 am 10:36 Sunny 73 23 50 10 44 44 ENE 7 11 30.18 1022 10 16.0934 N/A
10:57 am 10:57 Sunny 73 23 50 10 44 44 SE 3 6 30.15 1021 10 16.0934 N/A
11:16 am 11:16 Sunny 75 24 48 9 39 39 Calm 30.15 1021 10 16.0934 N/A
11:36 am 11:36 Sunny 75 24 48 9 39 39 ENE 3 6 30.18 1022 10 16.0934 N/A
11:56 am 11:56 Sunny 77 25 48 9 36 36 Calm 30.18 1022 10 16.0934 N/A
12:16 pm 12:16 Sunny 77 25 46 8 34 34 S 3 6 30.15 1021 10 16.0934 N/A
12:37 pm 12:37 Sunny 79 26 48 9 34 34 SE 8 13 30.15 1021 10 16.0934 N/A
12:56 pm 12:56 Sunny 79 26 46 8 32 32 SE 6 9 30.15 1021 10 16.0934 N/A
1:36 pm 13:36 Sunny 81 27 46 8 30 30 SE 6 9 30.15 1021 10 16.0934 N/A
1:56 pm 13:56 Sunny 81 27 45 7 28 28 SSE 7 11 30.15 1021 10 16.0934 N/A
2:16 pm 14:16 Sunny 82 28 46 8 28 28 SE 8 13 30.15 1021 10 16.0934 N/A
2:36 pm 14:36 Sunny 82 28 45 7 26 26 SE 8 13 30.15 1021 10 16.0934 N/A
2:56 pm 14:56 Sunny 81 27 46 8 30 30 SE 6 9 30.15 1021 10 16.0934 N/A
3:16 pm 15:16 Partly Cloudy 82 28 46 8 28 28 ESE 8 13 30.15 1021 10 16.0934 N/A
3:36 pm 15:36 Sunny 84 29 45 7 25 25 SE 7 11 30.15 1021 10 16.0934 N/A
3:56 pm 15:56 Sunny 86 30 41 5 20 20 SE 10 17 30.15 1021 10 16.0934 N/A
4:16 pm 16:16 Sunny 84 29 41 5 22 22 S 9 15 30.12 1020 10 16.0934 N/A
4:37 pm 16:37 Partly Cloudy 84 29 41 5 22 22 S 10 17 30.12 1020 10 16.0934 N/A
4:56 pm 16:56 Partly Cloudy 84 29 43 6 23 23 S 10 17 30.12 1020 10 16.0934 N/A
5:16 pm 17:16 Sunny 82 28 41 5 23 23 S 6 9 30.12 1020 10 16.0934 N/A
5:36 pm 17:36 Sunny 84 29 41 5 22 22 SSW 10 17 30.12 1020 10 16.0934 N/A
5:56 pm 17:56 Sunny 84 29 41 5 22 22 S 9 15 30.12 1020 10 16.0934 N/A
6:16 pm 18:16 Sunny 84 29 41 5 22 22 S 9 15 30.12 1020 10 16.0934 N/A
6:36 pm 18:36 Sunny 84 29 41 5 22 22 S 8 13 30.09 1019 10 16.0934 N/A
6:56 pm 18:56 Sunny 84 29 39 4 20 20 SSW 10 17 30.09 1019 10 16.0934 N/A
7:16 pm 19:16 Sunny 84 29 39 4 20 20 SSW 6 9 30.09 1019 10 16.0934 N/A
7:36 pm 19:36 Sunny 82 28 41 5 23 23 SSW 7 11 30.09 1019 10 16.0934 N/A
7:56 pm 19:56 Sunny 82 28 45 7 26 26 S 9 15 30.09 1019 10 16.0934 N/A
8:16 pm 20:16 Sunny 81 27 45 7 28 28 S 6 9 30.09 1019 10 16.0934 N/A
8:36 pm 20:36 Sunny 79 26 48 9 34 34 S 8 13 30.09 1019 10 16.0934 N/A
8:56 pm 20:56 Sunny 79 26 52 11 39 39 SSE 8 13 30.12 1020 10 16.0934 N/A
9:16 pm 21:16 Clear 77 25 52 11 42 42 SSE 8 13 30.09 1019 10 16.0934 N/A
9:36 pm 21:36 Clear 75 24 52 11 44 44 S 6 9 30.12 1020 10 16.0934 N/A
9:56 pm 21:56 Clear 75 24 54 12 47 47 S 3 6 30.12 1020 10 16.0934 N/A
10:16 pm 22:16 Clear 73 23 54 12 50 50 SSE 5 7 30.12 1020 10 16.0934 N/A
10:36 pm 22:36 Clear 73 23 54 12 50 50 Calm 30.12 1020 10 16.0934 N/A
10:56 pm 22:56 Clear 73 23 55 13 53 53 SSE 3 6 30.12 1020 10 16.0934 N/A
11:16 pm 23:16 Clear 72 22 55 13 57 57 SE 5 7 30.15 1021 10 16.0934 N/A
11:36 pm 23:36 Clear 72 22 55 13 57 57 S 3 6 30.15 1021 10 16.0934 N/A
11:57 pm 23:57 Clear 72 22 55 13 57 57 S 3 6 30.15 1021 10 16.0934 N/A

Powered by AerisWeather